04:24
Airports
History
Links
Donate
Help keep this website running!
PayPal
Bitcoin
Information on this page is community maintained and may be outdated or inaccurate and is intended for reference only or PC simulator navigating!
Always use approved charts for navigating.
EGLC
London City
London City (EGLC)
London, United Kingdom
(C)
Lat/Lng:51° 30' 18.83" N / 0° 3' 18.63" E
51.505231 / 0.055175
Elevation:19'ft 6mMSL
ID / ICAO:EGLC
Runways:1
Longest:(09-27) 1,496.7m 4,910ft Concrete
Controlled:Yes
Distance To
Airport ID:
Airport Radio Frequencies
City Information : 136.35
Ground: 121.82
Tower: 118.07, 118.4
Approach: 132.7
Nearby VORs <50NM
Nearby NDBs
METARUpdated 12-05-16 03:50 GMT
Altimeter: 30.24
Visibility: 5.0 statute miles
Wind: 2 knots (030°)
Temp: 1°c 34°f
Humidity: %

METAR: EGLC 050350Z AUTO 03002KT 8000 NCD 01/M00 Q1024

(Powered by phpweather)
Runway 09 / 27
Dimensions:1496.7 x 29.9m 4910' x 98'ft
Surface:Concrete
Edge Lights:High intensity
Runway 09 [A]Runway 27 [B]
Heading:092°TH 272°TH
Lat:
Lng:
51° 30' 20.06"N
0° 2' 39.61"E
51° 30' 17.6"N
0° 3' 57.65"E
ALS:MALSMALS
TDZ:Yes, lighted
Google Map
Nearby Airports
4 Damyns Hall 8.3 NM
EGML ENE 78°
(C) Stapleford 11.0 NM
EGSG NNE 22°
(C) Biggin Hill 12.2 NM
EGKB (WX) S 184°
4 Thurrock 13.6 NM
EGMT E 80°
(U) RAF Kenley 15.3 NM
EGKN SSW 205°
(C) North Weald 15.7 NM
EGSX NNE 15°
(C) Elstree 19.4 NM
EGTR WNW 302°
VFR Chart
Flight Planning at SkyVector.com